Theta_e
349 351 351 351 345 346 350 351 344 345 347 347 347 347 347 348 348 346 347 345 340 340 340 339 342 342 350 352 353 354 354 353 354 354 353 353 351 351 348 348 342 340 348
349 351 351 352 352 347 351 347 345 343 347 346 347 348 347 347 347 348 347 348 348 344 349 349 348 351 353 352 353 353 353 354 353 353 348 345 349 351 352 351 343 344 347
350 350 351 350 353 353 352 351 350 347 347 344 347 349 347 348 348 348 347 347 344 340 344 350 350 350 352 351 350 351 352 352 351 349 347 347 348 351 351 351 351 345 345
348 348 350 349 352 353 352 350 349 350 349 349 350 350 349 349 349 348 348 348 350 350 346 349 349 349 351 351 351 352 351 344 343 344 347 347 346 348 351 351 349 347 347
347 348 349 348 349 351 352 352 352 351 349 349 350 350 349 348 346 345 344 344 343 349 352 350 349 350 349 350 351 352 351 339 341 345 346 348 347 342 345 345 348 347 343
347 347 349 350 351 353 352 353 352 351 351 351 350 347 346 343 344 343 344 346 342 349 348 351 350 350 350 350 350 350 348 347 344 345 344 343 347 342 342 349 348 347 346
347 348 349 350 352 352 353 352 353 352 351 351 351 348 349 351 352 351 350 348 349 350 350 346 351 351 350 349 351 349 343 340 347 344 342 342 346 341 349 349 346 349 345
347 347 349 349 352 352 353 352 351 353 349 349 351 351 352 352 352 348 350 348 348 351 351 349 350 351 351 351 350 346 342 343 348 347 342 342 346 341 348 348 344 346 343
346 346 347 347 351 353 353 353 353 353 352 349 353 353 351 351 350 350 348 345 350 352 352 352 347 351 353 351 350 347 344 345 350 348 347 341 342 341 345 344 344 345 341
346 347 347 348 350 350 351 353 353 352 353 353 353 353 352 353 353 348 346 345 350 352 352 352 352 349 350 351 348 346 346 344 345 348 345 341 337 339 343 350 343 342 341
347 347 347 347 347 349 349 352 351 352 353 351 351 350 350 350 348 350 348 346 351 351 350 351 348 346 347 344 346 350 351 347 347 346 345 343 336 340 338 343 343 340 341
347 347 347 346 345 346 347 350 350 349 352 350 349 350 349 347 348 348 348 343 349 350 350 349 353 350 344 343 347 345 344 347 345 343 344 344 337 336 338 340 331 338 338
344 345 346 345 346 346 346 348 350 350 352 348 350 349 348 347 348 347 349 348 349 349 346 349 350 349 349 347 344 343 343 344 344 341 343 340 341 338 339 340 337 335 330
342 344 344 343 346 343 342 343 345 348 348 347 348 350 349 347 345 347 346 348 349 347 348 346 346 346 348 349 348 348 346 345 344 345 345 343 340 340 338 344 340 338 334
341 342 342 343 348 347 347 342 341 344 346 346 346 346 347 346 348 349 350 348 348 345 346 350 348 348 349 348 347 347 349 348 348 347 347 348 341 340 339 344 344 338 336
341 342 342 343 347 347 349 349 344 344 343 346 347 346 347 346 350 352 351 347 345 347 349 349 350 347 348 347 348 348 348 349 350 345 345 348 347 344 342 342 340 338 337
341 343 343 344 345 346 348 350 349 349 348 348 349 352 353 351 352 354 349 345 346 346 345 344 347 349 346 344 345 348 349 348 349 350 348 348 344 343 343 343 342 342 341
343 343 345 345 345 346 345 348 350 350 351 352 353 352 352 353 354 352 348 349 350 347 345 342 347 349 346 345 346 348 350 350 350 351 351 350 346 344 344 343 342 342 343
348 346 346 345 345 346 347 347 350 351 353 354 353 353 353 355 356 356 352 352 353 352 346 344 347 350 347 344 347 349 352 351 351 350 350 352 352 350 349 348 346 344 345
349 349 348 345 344 346 347 348 349 351 353 354 354 354 355 356 357 357 355 355 354 352 348 346 348 347 347 345 351 352 353 352 349 350 351 352 352 352 351 350 350 349 346
350 350 350 347 346 347 349 350 350 351 353 353 354 355 357 356 357 357 356 353 354 350 348 346 346 349 352 349 349 350 348 353 351 351 351 351 352 351 350 349 349 349 349
349 350 351 350 349 349 350 351 351 353 353 353 355 356 358 359 360 360 357 354 352 351 350 350 350 350 349 351 352 352 354 352 351 351 351 351 351 350 349 349 349 349 349
348 350 351 352 352 352 350 352 354 355 356 355 356 357 359 361 360 359 356 354 353 351 350 350 351 353 353 352 353 352 358 356 350 351 350 350 350 348 348 349 348 348 348
346 348 350 352 353 354 354 350 353 353 352 353 356 358 359 359 358 355 353 355 354 352 352 352 353 354 354 354 353 353 352 352 355 355 350 349 347 346 346 347 347 347 346
345 346 347 350 353 354 354 352 353 354 352 354 355 356 360 359 356 353 353 353 353 351 353 353 354 354 352 353 353 351 351 351 351 349 346 345 340 343 345 347 346 347 346
345 346 347 349 354 355 355 355 354 353 354 355 356 354 356 357 356 353 353 354 355 354 353 354 354 353 353 352 351 349 346 345 344 341 341 341 340 343 345 346 345 345 344
Wind_Speed
12 12 13 14 16 18 18 18 19 19 18 17 16 15 15 14 14 13 12 12 11 11 11 11 11 11 12 12 13 14 14 14 13 13 13 14 13 13 13 13 16 13 14
19 15 16 15 16 17 17 18 19 20 17 16 15 13 13 12 13 12 11 10 8 10 11 10 11 11 11 11 11 12 12 11 10 10 10 12 12 11 10 11 13 13 13
20 18 16 18 18 17 17 17 17 16 14 13 14 12 11 10 11 10 9 9 9 8 8 10 9 10 9 9 10 10 10 9 9 8 9 7 7 8 9 10 12 13 13
21 19 18 17 18 18 17 16 16 15 15 14 12 11 10 9 9 8 7 7 7 7 6 8 9 8 8 7 8 9 8 7 7 9 4 3 6 6 8 9 11 12 14
20 20 18 19 17 17 16 15 14 13 12 12 11 9 9 7 6 6 4 4 4 4 4 5 6 6 6 6 6 6 6 6 8 6 3 2 2 5 6 7 9 11 11
20 19 19 19 16 15 14 14 13 12 12 11 10 8 7 6 5 4 4 3 3 3 3 3 4 4 5 4 4 4 4 2 5 2 1 3 3 4 5 6 7 9 9
19 19 17 17 15 14 13 12 12 11 11 10 9 9 7 6 5 5 5 4 3 3 3 3 4 4 4 5 4 3 2 2 2 1 1 3 3 4 5 6 7 7 8
18 18 17 15 14 13 12 11 11 10 9 10 8 8 7 5 5 4 6 6 6 5 3 3 4 5 5 5 5 4 3 3 1 1 0 3 4 6 5 5 6 7 8
17 16 16 14 12 11 11 10 10 9 9 8 7 7 7 6 5 6 4 5 6 6 5 4 4 4 5 4 4 4 4 4 4 2 3 3 5 8 5 5 6 7 7
16 15 14 14 12 11 8 10 9 8 6 5 5 5 6 6 6 5 4 4 8 6 6 5 5 5 6 6 6 6 5 5 7 4 3 4 5 6 6 6 6 8 8
15 15 14 12 11 10 9 8 8 7 6 5 5 5 5 5 4 3 6 4 4 4 4 4 5 5 7 7 9 8 7 9 7 7 5 7 6 6 7 4 5 5 8
16 15 14 12 12 11 9 8 8 6 6 5 5 5 4 3 3 4 4 6 5 5 6 6 6 7 6 9 8 6 8 8 10 10 8 8 7 8 10 9 12 8 8
18 16 14 13 12 11 9 9 8 7 7 7 6 5 4 4 4 4 4 5 6 7 8 7 8 8 8 8 8 9 7 9 10 10 12 14 10 10 10 13 14 14 13
18 16 15 14 13 11 9 9 8 7 7 7 6 6 5 5 4 4 5 5 5 7 6 8 9 7 7 7 9 10 10 11 12 11 9 13 13 13 14 15 16 17 17
18 18 16 15 14 12 11 8 8 8 8 7 7 7 7 6 5 5 4 5 7 8 10 8 10 8 7 10 11 11 10 13 14 14 13 10 13 15 15 17 17 15 16
17 17 17 16 15 13 11 10 9 9 8 7 7 7 8 8 7 6 6 9 10 9 9 9 10 11 12 13 13 13 14 13 12 15 15 15 11 14 16 20 20 21 21
18 16 16 16 15 15 13 11 9 8 8 8 7 7 8 9 9 10 9 14 15 13 14 13 13 12 11 9 12 14 15 18 16 15 14 17 16 17 21 22 22 26 27
17 18 17 16 16 16 14 12 10 8 8 8 8 8 10 12 12 14 14 13 11 15 15 13 12 13 12 11 12 13 13 15 15 14 13 16 20 20 19 24 23 23 30
17 17 17 16 15 14 13 12 11 10 9 9 8 9 9 11 12 13 14 15 14 14 14 15 10 8 10 12 12 14 12 12 11 12 14 15 14 10 11 14 17 19 28
16 16 16 17 16 13 11 12 11 11 11 10 9 8 9 10 11 12 13 14 13 13 13 15 10 10 11 13 11 10 10 10 13 12 12 10 9 9 10 10 11 11 15
17 17 17 18 16 16 15 12 11 11 10 9 9 8 9 9 10 11 12 12 9 7 9 9 9 9 9 10 9 6 9 7 6 4 4 5 5 6 6 6 6 7 7
20 20 19 19 18 19 15 13 11 8 8 7 6 7 8 7 8 7 5 5 4 4 6 10 10 6 6 6 3 7 3 6 5 3 2 1 1 2 3 4 3 4 5
20 20 22 22 21 20 18 14 11 9 8 7 7 5 4 4 2 3 3 2 3 4 6 8 7 7 6 4 6 5 3 2 3 1 3 2 3 3 4 2 2 2 4
23 22 21 20 21 21 19 18 17 13 11 8 5 3 2 2 3 3 3 3 4 4 4 4 5 6 6 5 3 6 6 6 3 1 6 1 3 4 4 3 2 2 4
24 22 21 21 21 21 21 22 19 17 13 10 6 3 2 4 5 3 4 4 3 3 3 3 4 4 4 4 4 4 2 3 1 4 5 4 3 3 5 4 4 4 5
25 22 20 19 21 21 22 21 21 17 15 11 10 8 7 6 5 5 3 2 2 2 3 2 1 1 2 4 4 3 4 3 2 4 5 4 5 3 2 3 5 6 7
Wind_Direction
157 148 144 138 138 132 124 123 135 129 126 125 122 117 112 111 107 110 108 110 106 111 112 106 105 102 101 101 104 104 103 105 100 97 95 90 88 91 95 97 93 104 109
142 141 140 136 132 128 123 128 136 135 129 126 122 120 121 114 114 112 109 99 95 109 104 103 107 104 106 106 105 105 107 105 103 99 96 87 90 90 89 91 105 112 114
137 137 131 133 130 130 128 127 128 134 135 133 130 125 126 127 120 117 113 101 93 99 99 101 105 108 110 109 107 111 105 104 111 119 111 103 89 104 100 94 98 108 116
138 138 137 134 129 127 128 129 131 132 132 133 131 133 133 134 129 121 114 105 99 96 104 104 105 110 117 118 112 114 114 116 107 103 78 81 102 117 118 116 112 115 126
142 139 142 137 132 129 128 126 126 128 134 136 136 139 139 149 144 136 131 122 116 112 115 113 116 121 118 115 116 121 113 105 108 85 105 98 130 136 132 122 122 118 120
144 139 145 139 137 134 133 131 132 135 136 139 142 154 161 171 176 172 187 184 158 177 169 149 135 135 146 140 137 132 137 127 93 108 134 134 55 118 158 131 135 136 135
147 140 147 144 144 141 140 143 142 145 145 148 150 158 159 168 190 195 204 208 185 217 193 163 162 155 161 178 172 166 159 156 121 120 295 214 177 175 162 161 147 144 140
147 148 151 155 156 156 154 153 157 155 155 158 162 166 161 163 178 194 205 208 206 208 205 181 186 183 178 185 192 189 193 177 265 309 319 154 175 186 178 181 166 167 152
153 153 157 161 165 170 171 169 170 161 160 164 167 177 180 186 176 183 194 208 207 211 221 224 215 196 193 202 209 212 216 228 222 267 250 203 226 188 187 189 188 182 180
160 159 161 162 165 167 168 174 168 166 167 166 162 168 176 184 196 178 194 215 216 217 223 226 228 231 220 230 239 247 254 255 244 226 229 203 221 189 184 197 197 196 207
169 164 164 164 166 168 168 180 174 180 182 188 185 193 171 194 178 188 186 205 205 216 233 235 239 237 240 245 243 244 253 255 271 254 231 233 208 186 193 193 224 224 225
175 172 168 171 171 170 170 173 179 186 189 190 185 191 196 200 202 199 215 233 224 227 236 238 240 251 253 250 235 263 253 238 248 246 247 236 223 210 195 189 203 216 232
175 175 176 177 176 175 175 179 180 182 196 198 201 203 209 220 226 226 230 233 228 238 250 217 250 239 261 271 264 271 271 260 254 250 254 240 233 222 207 199 200 211 227
174 181 180 179 181 182 180 184 186 191 195 200 201 206 221 236 235 247 261 279 253 259 259 247 259 255 264 260 263 263 261 260 262 255 253 259 244 236 228 218 216 208 211
180 182 186 183 185 187 189 187 195 203 207 211 216 220 223 240 250 253 260 278 297 298 284 280 267 266 275 266 269 268 254 266 266 271 268 254 253 245 239 237 235 222 227
186 184 186 189 191 190 192 196 198 204 210 218 216 220 228 237 251 260 263 260 269 275 278 277 275 277 270 272 275 270 270 263 256 263 263 267 250 252 250 247 229 228 224
189 187 190 191 191 194 199 202 207 208 210 218 222 227 231 239 249 249 262 267 263 263 273 274 279 274 292 294 280 278 274 261 265 263 249 252 261 261 251 247 237 230 233
189 191 192 193 195 196 199 203 209 215 220 225 231 235 237 240 245 254 258 264 266 253 254 272 275 280 283 287 284 285 277 259 259 255 256 253 253 251 251 246 243 237 239
190 191 197 199 200 199 202 207 217 223 230 234 237 241 243 246 251 258 265 268 259 258 248 252 275 281 281 286 289 291 270 260 262 261 260 254 259 251 247 251 262 250 231
193 200 201 202 200 200 203 211 219 229 234 239 243 250 253 256 254 262 273 274 265 250 263 234 247 281 272 271 282 281 269 266 263 267 268 270 261 250 252 252 261 265 246
206 204 207 205 204 196 198 207 218 225 228 235 243 253 259 266 264 263 271 280 274 261 256 214 231 258 281 268 271 267 278 251 255 255 268 261 254 251 258 261 260 271 281
206 210 208 210 205 204 209 210 214 223 227 234 237 247 257 263 269 267 265 286 271 231 205 200 217 255 269 248 268 274 236 194 206 244 213 229 302 285 272 265 244 259 284
211 209 213 212 207 206 209 210 217 229 241 239 233 242 242 252 252 212 240 235 210 194 164 173 207 234 257 241 228 275 350 280 256 217 268 81 324 337 293 280 277 291 287
214 216 220 218 215 211 205 210 214 224 232 224 224 236 254 228 191 203 189 177 178 184 184 197 219 249 254 267 258 255 285 308 355 310 216 236 318 329 335 328 319 343 329
212 215 220 217 214 211 208 208 211 222 231 229 217 201 231 209 198 174 161 171 181 193 213 242 258 259 271 271 271 287 323 322 283 280 303 195 291 65 352 318 39 12 13
209 213 216 212 213 208 207 209 212 214 218 221 212 213 226 213 195 178 174 209 237 235 240 247 300 347 348 359 356 338 313 310 272 298 288 296 331 34 350 46 47 28 13